[[{"header":{"parameterUnit":"m.s-1","parameterCategory":2,"la1":30.2991,"la2":30.254,"lo1":-89.0895,"lo2":-89.0444,"dy":0.0017,"dx":0.0017,"nx":28,"ny":28,"refTime":"2025-11-18T09:00:00:Z","depth":"0","parameterNumber":2,"parameterNumberName":"U-component_of_CURRENTS"},"data":[0,0,0,0,0,0,0,0,0,0,0,0,0,0,0,0,0,0,0,0,0,0,0,0,0,0,0,0,0,0,0,0,0,0,0,0,0,0,0,0,0,0,0,0,0,0,0,0,0,0,0,0,0,0,0,0,0,0,0.1674,0.1675,0,0.1666,0.1666,0.1665,0.1643,0.1643,0.1643,0.1643,0.1639,0.1639,0.1639,0,0,0,0,0,0,0,0,0,0,0,0,0,0.169,0.169,0.1674,0.1675,0.1675,0.1666,0.1666,0.1665,0.1643,0.1643,0.1643,0.1643,0.1639,0.1639,0.1639,0,0,0,0,0,0,0,0,0,0,0,0,0,0.1679,0.1689,0.1674,0.1666,0.1665,0.1666,0.1666,0.1665,0.1644,0.1643,0.1643,0.1643,0.1639,0.1639,0.1639,0.1644,0,0,0.164,0.164,0,0,0,0,0,0,0,0,0.168,0.1678,0.1667,0.1666,0.1666,0.1659,0.167,0.166,0.1644,0.1648,0.1643,0.1643,0.1649,0.1648,0.1642,0.1644,0.1644,0.164,0.164,0.164,0.164,0,0,0,0,0,0,0,0.1681,0.1679,0.1667,0.1667,0.1666,0.1669,0.1666,0.1668,0.1647,0.1647,0.1647,0.1652,0.1648,0.1642,0.1642,0.1644,0.164,0.164,0.164,0.164,0.1691,0.1692,0,0,0,0,0,0,0.1688,0.1679,0.1668,0.1668,0.1676,0.1669,0.1666,0.1658,0.1647,0.1646,0.1652,0.1651,0.1642,0.1642,0.1641,0.1687,0.164,0.164,0.164,0.169,0.1691,0.1693,0,0,0,0,0,0,0.1688,0.1687,0.1668,0.1677,0.1675,0.1669,0.166,0.1658,0.1655,0.1651,0.1649,0.1651,0.1642,0.1641,0.1652,0.1686,0.164,0.164,0.1688,0.169,0.1692,0.1753,0,0,0,0,0,0,0.1688,0.1686,0.1687,0.1677,0.1675,0.1678,0.1661,0.1658,0.166,0.1658,0.165,0.1649,0.1641,0.1652,0.1652,0.1685,0.164,0.1686,0.1689,0.1691,0.175,0.1757,0.1764,0,0,0,0,0,0.1689,0.1692,0.1686,0.1686,0.1674,0.1679,0.1678,0.1671,0.166,0.1665,0.166,0.1649,0.1669,0.1653,0.1653,0.1686,0.1685,0.1688,0.1691,0.1746,0.1756,0.1763,0,0,0,0,0,0,0.17,0.169,0.1684,0.1683,0.1686,0.1677,0.1684,0.1675,0.1673,0.1674,0.1659,0.1659,0.1685,0.1675,0.1658,0.1709,0.1678,0.1681,0.172,0.1729,0.1736,0.1738,0.164,0,0,0,0,0,0.1703,0.1701,0.1696,0.1698,0.17,0.1691,0.1693,0.169,0.1687,0.1685,0.1677,0.168,0.1697,0.1702,0.1709,0.1731,0.1735,0.1754,0.1762,0.1767,0.177,0.1807,0.1817,0.1703,0.1703,0.1702,0,0,0.1709,0.1705,0.1703,0.1701,0.1699,0.1709,0.169,0.17,0.1715,0.1687,0.17,0.1702,0.1708,0.1738,0.1749,0.1733,0.1806,0.1771,0.1776,0.1775,0.1811,0.1822,0.1832,0.1705,0.1704,0.1704,0,0,0.1725,0.1715,0.1721,0.1724,0.1731,0.173,0.1734,0.1729,0.1735,0.1749,0.1744,0.1765,0.1769,0.1791,0.1802,0.1851,0.1842,0.1852,0.1889,0.1925,0.1935,0.1944,0.1976,0.1987,0.1855,0.1855,0.1855,0,0.1737,0.1733,0.1727,0.1737,0.1743,0.174,0.1753,0.1765,0.1765,0.1776,0.1764,0.1794,0.1802,0.1852,0.1873,0.187,0.1879,0.1857,0.1935,0.1943,0.1951,0.1982,0.1993,0.1858,0.1858,0.1858,0.1857,0,0.1753,0.1755,0.1762,0.1768,0.1779,0.179,0.1806,0.1819,0.1822,0.1829,0.1869,0.1879,0.1895,0.1913,0.1908,0.1972,0.1958,0.1941,0.1913,0.1967,0.1996,0.2006,0.1863,0.1862,0.1861,0.186,0,0,0.1759,0.1771,0.177,0.1776,0.1794,0.1802,0.184,0.1867,0.1888,0.1905,0.1936,0.198,0.1975,0.1988,0.1993,0.2029,0.2103,0.2008,0.2008,0.204,0.2181,0.2037,0.2035,0.2094,0.2096,0.2098,0.2183,0,0.1771,0.179,0.1795,0.1816,0.1826,0.184,0.1872,0.1902,0.1924,0.1955,0.1991,0.2021,0.2009,0.2022,0.206,0.2094,0.2131,0.2081,0.2124,0.2125,0.1991,0.2042,0.1899,0.195,0.2193,0.2195,0.2196,0,0.178,0.1788,0.1809,0.1832,0.1838,0.1855,0.1895,0.1924,0.1979,0.1999,0.2036,0.2053,0.2123,0.2096,0.2186,0.2151,0.217,0.2192,0.2195,0.2043,0.2001,0.1934,0.196,0.1891,0.2212,0.2211,0.221,0,0.1775,0.1797,0.181,0.1817,0.1847,0.1863,0.1883,0.1932,0.1965,0.2025,0.2053,0.2118,0.2157,0.2201,0.2235,0.222,0.2319,0.2304,0.2196,0.2187,0.2063,0.2037,0.2021,0.2362,0.2362,0.2361,0.2361,0,0.1779,0.1786,0.1805,0.1808,0.1831,0.1855,0.189,0.1922,0.1978,0.202,0.2068,0.2113,0.2183,0.2238,0.2263,0.2254,0.2342,0.221,0.2198,0.2078,0.2054,0.1982,0.1971,0.2365,0.2364,0.2363,0.2363,0,0.1772,0.1781,0.1796,0.182,0.1826,0.1842,0.1885,0.1917,0.1967,0.2027,0.2051,0.2136,0.2189,0.2237,0.2315,0.2272,0.2202,0.2262,0.2107,0.2072,0.1855,0.1852,0.1743,0.1714,0.2159,0.2156,0.2153,0,0.1771,0.1776,0.1796,0.1809,0.1816,0.184,0.1863,0.1906,0.194,0.2034,0.2065,0.2133,0.2157,0.2199,0.214,0.2133,0.2106,0.1986,0.1914,0.182,0.1813,0.1747,0.1729,0.1802,0.1797,0.1792,0.1789,0,0.1778,0.1783,0.1803,0.1816,0.1831,0.1843,0.1873,0.1895,0.1953,0.1993,0.2049,0.2075,0.2065,0.1959,0.1905,0.1894,0.1839,0.1891,0.1853,0.1568,0.1441,0.1414,0.178,0.1751,0.1754,0.1757,0.1759,0.1761,0.1792,0.1806,0.1829,0.1833,0.1849,0.1844,0.1829,0.1862,0.1886,0.1902,0.1976,0.1933,0.1805,0.1682,0.1667,0.1475,0.1546,0.1395,0.1419,0.1375,0.1267,0.1522,0.1426,0.1428,0.143,0.1431,0.1432,0,0.1803,0.1821,0.1844,0.1842,0.1832,0.1832,0.1834,0.1794,0.1779,0.1784,0.1783,0.1587,0.1432,0.1336,0.1104,0.1015,0.1011,0.0995,0.0914,0.0942,0.1221,0.1121,0.0879,0.0879,0.0879,0.0879,0.0879,0.0879,0.1817,0.1833,0.183,0.1811,0.18,0.1737,0.1708,0.1655,0.162,0.1484,0.1342,0.1265,0.1097,0.0855,0.0693,0.0699,0.0689,0.0577,0.0677,0.0902,0.0942,0.0981,0.0884,0.0596,0.0596,0.0324,0.0322,0.032]},{"header":{"parameterUnit":"m.s-1","parameterCategory":2,"la1":30.2991,"la2":30.254,"lo1":-89.0895,"lo2":-89.0444,"dy":0.0017,"dx":0.0017,"nx":28,"ny":28,"refTime":"2025-11-18T09:00:00:Z","depth":"0","parameterNumber":3,"parameterNumberName":"V-component_of_CURRENTS"},"data":[0,0,0,0,0,0,0,0,0,0,0,0,0,0,0,0,0,0,0,0,0,0,0,0,0,0,0,0,0,0,0,0,0,0,0,0,0,0,0,0,0,0,0,0,0,0,0,0,0,0,0,0,0,0,0,0,0,0,-0.0117,-0.0117,0,-0.0118,-0.0118,-0.0118,-0.0118,-0.0118,-0.0118,-0.0118,-0.0137,-0.0137,-0.0138,0,0,0,0,0,0,0,0,0,0,0,0,0,-0.0112,-0.0112,-0.0117,-0.0117,-0.0117,-0.0118,-0.0118,-0.0118,-0.0118,-0.0118,-0.0118,-0.0118,-0.0137,-0.0137,-0.0138,0,0,0,0,0,0,0,0,0,0,0,0,0,-0.0113,-0.0112,-0.0117,-0.0118,-0.0118,-0.0118,-0.0118,-0.0118,-0.0117,-0.0118,-0.0118,-0.0118,-0.0136,-0.0137,-0.0138,-0.014,0,0,-0.014,-0.014,0,0,0,0,0,0,0,0,-0.0113,-0.0113,-0.0118,-0.0118,-0.0118,-0.0119,-0.0123,-0.0127,-0.0117,-0.0117,-0.0118,-0.0118,-0.0133,-0.0134,-0.0132,-0.0141,-0.0142,-0.014,-0.014,-0.0141,-0.0141,0,0,0,0,0,0,0,-0.0112,-0.0113,-0.0117,-0.0118,-0.0118,-0.0117,-0.0117,-0.0124,-0.0124,-0.0117,-0.0117,-0.0119,-0.0133,-0.0132,-0.0133,-0.0142,-0.014,-0.014,-0.0141,-0.0141,-0.0161,-0.0161,0,0,0,0,0,0,-0.0114,-0.0113,-0.0117,-0.0117,-0.0117,-0.0117,-0.0118,-0.0118,-0.0123,-0.0124,-0.0119,-0.0119,-0.013,-0.0132,-0.0133,-0.0131,-0.0141,-0.0141,-0.0142,-0.0161,-0.0161,-0.0161,0,0,0,0,0,0,-0.0114,-0.0115,-0.0117,-0.0116,-0.0116,-0.0118,-0.0118,-0.0118,-0.0116,-0.0125,-0.0126,-0.0117,-0.013,-0.0133,-0.014,-0.0132,-0.0141,-0.0142,-0.016,-0.0161,-0.0161,-0.013,0,0,0,0,0,0,-0.0114,-0.0115,-0.0115,-0.0116,-0.0116,-0.0114,-0.0118,-0.0118,-0.0117,-0.0117,-0.0124,-0.0125,-0.0131,-0.0139,-0.0141,-0.0133,-0.0143,-0.016,-0.0161,-0.0161,-0.0131,-0.0129,-0.0128,0,0,0,0,0,-0.0114,-0.0114,-0.0115,-0.0116,-0.0117,-0.0114,-0.0114,-0.0115,-0.0117,-0.0114,-0.0122,-0.0125,-0.0142,-0.014,-0.0142,-0.0134,-0.016,-0.016,-0.0161,-0.0132,-0.013,-0.0128,0,0,0,0,0,0,-0.0113,-0.0114,-0.0116,-0.0117,-0.0114,-0.0114,-0.0113,-0.0114,-0.0116,-0.012,-0.0127,-0.0129,-0.0132,-0.0141,-0.0139,-0.0142,-0.0152,-0.0152,-0.0129,-0.0127,-0.0126,-0.0103,-0.0143,0,0,0,0,0,-0.0113,-0.0113,-0.0113,-0.0114,-0.0113,-0.0113,-0.0112,-0.0113,-0.0116,-0.0117,-0.0121,-0.013,-0.0134,-0.0138,-0.0144,-0.0147,-0.013,-0.0144,-0.0143,-0.0141,-0.0125,-0.0089,-0.0081,-0.0162,-0.0162,-0.0162,0,0,-0.0114,-0.0115,-0.0115,-0.0114,-0.0112,-0.0104,-0.0112,-0.0112,-0.0105,-0.012,-0.0115,-0.0124,-0.0135,-0.0135,-0.0137,-0.0142,-0.0113,-0.0142,-0.014,-0.0125,-0.0088,-0.008,-0.0072,-0.0162,-0.0162,-0.0162,0,0,-0.0108,-0.0114,-0.0108,-0.0104,-0.0103,-0.0102,-0.0101,-0.0101,-0.0101,-0.0103,-0.0108,-0.011,-0.0124,-0.012,-0.0122,-0.0117,-0.0105,-0.0127,-0.0098,-0.0062,-0.0055,-0.0048,-0.0024,-0.0015,-0.0125,-0.0125,-0.0125,0,-0.0108,-0.0098,-0.0105,-0.0094,-0.0088,-0.0099,-0.0085,-0.0087,-0.0089,-0.0079,-0.01,-0.0096,-0.0112,-0.0092,-0.0095,-0.011,-0.0091,-0.0102,-0.0057,-0.005,-0.0043,-0.002,-0.0011,-0.0124,-0.0124,-0.0124,-0.0124,0,-0.0091,-0.0082,-0.0078,-0.0066,-0.0062,-0.0055,-0.0057,-0.0053,-0.0061,-0.0055,-0.0044,-0.0064,-0.0054,-0.0067,-0.0083,-0.0044,-0.0047,-0.0057,-0.0056,-0.0033,-0.0011,-0.0002,-0.0122,-0.0122,-0.0123,-0.0123,0,0,-0.0085,-0.0069,-0.0065,-0.005,-0.0046,-0.0038,-0.0028,-0.001,0.0011,-0.0002,0.003,0.001,0.0009,0.0006,-0.001,0.001,0.0058,-0.0004,-0.0002,0.0032,0.0136,0.0132,0.0142,0.0061,0.0063,0.0065,0.013,0,-0.0064,-0.0036,-0.0034,-0.0005,0.0011,0.0009,0.0025,0.0037,0.0039,0.0064,0.0056,0.0071,0.0033,0.0038,0.0054,0.0064,0.0086,0.0041,0.0099,0.0101,0.0105,0.0154,0.016,0.0219,0.0139,0.0141,0.0142,0,-0.0039,-0.0023,0.0007,0.0037,0.0045,0.0059,0.0091,0.0105,0.0132,0.0135,0.0153,0.0147,0.0176,0.0131,0.0178,0.0154,0.015,0.0149,0.0152,0.0149,0.0116,0.0183,0.0239,0.022,0.0157,0.0155,0.0154,0,-0.002,0.0011,0.0036,0.0045,0.0072,0.009,0.0106,0.0132,0.0157,0.0189,0.0215,0.0237,0.0261,0.0267,0.0258,0.0227,0.0311,0.0268,0.0261,0.026,0.0278,0.0275,0.0335,0.0306,0.0306,0.0306,0.0305,0,0.0006,0.0031,0.0048,0.0065,0.0105,0.0114,0.016,0.0177,0.0215,0.0267,0.0258,0.0308,0.0299,0.0335,0.0307,0.033,0.0356,0.0289,0.0289,0.0285,0.0282,0.0275,0.0253,0.0308,0.0307,0.0307,0.0307,0,0.0026,0.0037,0.0071,0.0102,0.0115,0.0144,0.0192,0.0228,0.0258,0.0326,0.0343,0.0389,0.0446,0.0432,0.0458,0.0408,0.041,0.0408,0.0398,0.0395,0.0346,0.0325,0.0407,0.0395,0.0413,0.0413,0.0414,0,0.0039,0.0057,0.0094,0.0117,0.0132,0.0174,0.0208,0.0246,0.0289,0.0384,0.0428,0.0499,0.0568,0.0602,0.0544,0.052,0.0472,0.0472,0.0406,0.0371,0.0347,0.0339,0.032,0.0437,0.0438,0.0438,0.0438,0,0.0063,0.0072,0.0094,0.014,0.0177,0.0228,0.0281,0.0323,0.0387,0.0459,0.0574,0.0642,0.0679,0.0684,0.0631,0.0586,0.0464,0.0479,0.046,0.0397,0.0378,0.0355,0.0353,0.0443,0.0442,0.0442,0.0442,0.0441,0.0075,0.0094,0.0119,0.0166,0.0211,0.0281,0.0333,0.0405,0.0501,0.0631,0.0683,0.0809,0.0781,0.0728,0.0665,0.0527,0.0516,0.0462,0.0448,0.0448,0.0419,0.042,0.0492,0.0492,0.0492,0.0491,0.0491,0,0.0095,0.0114,0.0149,0.0207,0.0263,0.0288,0.0383,0.0449,0.0576,0.0717,0.0833,0.09,0.0868,0.0776,0.0603,0.0511,0.0462,0.0458,0.0448,0.0433,0.0457,0.0439,0.0482,0.0482,0.0482,0.0482,0.0482,0.0482,0.0106,0.0137,0.0156,0.0242,0.0288,0.0376,0.0437,0.0547,0.0659,0.0837,0.0931,0.0992,0.0924,0.0704,0.0548,0.0499,0.0445,0.0436,0.0408,0.0412,0.0411,0.041,0.0389,0.042,0.042,0.0389,0.0389,0.0389]}],[{"header":{"parameterUnit":"m.s-1","parameterCategory":2,"la1":30.2991,"la2":30.254,"lo1":-89.0895,"lo2":-89.0444,"dy":0.0017,"dx":0.0017,"nx":28,"ny":28,"refTime":"2025-11-18T09:00:00:Z","depth":"2","parameterNumber":2,"parameterNumberName":"U-component_of_CURRENTS"},"data":[0,0,0,0,0,0,0,0,0,0,0,0,0,0,0,0,0,0,0,0,0,0,0,0,0,0,0,0,0,0,0,0,0,0,0,0,0,0,0,0,0,0,0,0,0,0,0,0,0,0,0,0,0,0,0,0,0,0,0.1076,0.1076,0,0.1073,0.1073,0.1073,0.1068,0.1068,0.1068,0.1067,0.1073,0.1073,0.1073,0,0,0,0,0,0,0,0,0,0,0,0,0,0.1102,0.1102,0.1076,0.1076,0.1075,0.1073,0.1073,0.1073,0.1068,0.1068,0.1068,0.1067,0.1072,0.1073,0.1073,0,0,0,0,0,0,0,0,0,0,0,0,0,0.1096,0.1102,0.1076,0.1071,0.1071,0.1073,0.1073,0.1073,0.1068,0.1068,0.1068,0.1067,0.1072,0.1073,0.1074,0.1086,0,0,0.1075,0.1076,0,0,0,0,0,0,0,0,0.1096,0.1095,0.1072,0.1071,0.1071,0.1069,0.1084,0.1077,0.1069,0.1071,0.1067,0.1067,0.1071,0.1072,0.1075,0.1086,0.1086,0.1075,0.1076,0.1076,0.1076,0,0,0,0,0,0,0,0.1097,0.1096,0.1077,0.1072,0.1071,0.1078,0.1076,0.1083,0.1075,0.1071,0.107,0.1067,0.1071,0.1074,0.1075,0.1086,0.1075,0.1076,0.1076,0.1076,0.1134,0.1135,0,0,0,0,0,0,0.1092,0.1096,0.1077,0.1076,0.1081,0.1077,0.1076,0.1072,0.1075,0.1074,0.1067,0.1067,0.1074,0.1074,0.1075,0.1118,0.1076,0.1077,0.1077,0.1133,0.1134,0.1135,0,0,0,0,0,0,0.1093,0.1091,0.1077,0.1085,0.1083,0.1077,0.1072,0.1072,0.1083,0.1072,0.1072,0.108,0.1073,0.1074,0.1082,0.1117,0.1077,0.1077,0.1131,0.1133,0.1135,0.1185,0,0,0,0,0,0,0.1094,0.1091,0.1092,0.1084,0.1082,0.1089,0.1072,0.1072,0.108,0.108,0.1083,0.1082,0.1073,0.1081,0.1083,0.1117,0.1078,0.113,0.1132,0.1134,0.1182,0.1189,0.1194,0,0,0,0,0,0.1095,0.1094,0.1092,0.109,0.1082,0.109,0.1091,0.1086,0.1082,0.1094,0.1087,0.1082,0.1097,0.1082,0.1084,0.1119,0.1129,0.1131,0.1134,0.118,0.1187,0.1194,0,0,0,0,0,0,0.1109,0.1093,0.1091,0.1086,0.1094,0.1089,0.1096,0.1095,0.1101,0.1097,0.1089,0.1089,0.1112,0.1106,0.1091,0.1142,0.1116,0.1119,0.115,0.1158,0.1164,0.1159,0.1078,0,0,0,0,0,0.1112,0.1106,0.1102,0.1102,0.1106,0.1106,0.111,0.1106,0.1106,0.1108,0.1107,0.111,0.1125,0.1131,0.1137,0.1161,0.1159,0.1187,0.1193,0.1198,0.1196,0.1225,0.1233,0.1144,0.1144,0.1144,0,0,0.1116,0.1108,0.1105,0.1105,0.1109,0.1119,0.1108,0.1116,0.1127,0.1108,0.1124,0.113,0.1135,0.1161,0.1172,0.116,0.1224,0.1202,0.1206,0.1201,0.1228,0.1237,0.1245,0.1146,0.1145,0.1145,0,0,0.1123,0.1119,0.112,0.1126,0.113,0.1133,0.1139,0.1141,0.1148,0.1161,0.1157,0.1178,0.119,0.1205,0.1215,0.1258,0.1253,0.1269,0.1297,0.1326,0.1333,0.134,0.135,0.1357,0.1273,0.1273,0.1273,0,0.113,0.1127,0.1125,0.1132,0.1136,0.1142,0.1152,0.1165,0.1169,0.1179,0.117,0.1205,0.1213,0.1254,0.1272,0.1273,0.1279,0.127,0.1333,0.134,0.1346,0.1355,0.1362,0.1276,0.1276,0.1275,0.1275,0,0.1138,0.114,0.1146,0.1153,0.1163,0.1172,0.1185,0.1199,0.1205,0.1217,0.1252,0.1262,0.1281,0.1302,0.13,0.1356,0.1343,0.1337,0.1314,0.1358,0.1365,0.1371,0.128,0.1279,0.1278,0.1277,0,0,0.114,0.1147,0.1151,0.1154,0.1171,0.1178,0.1203,0.1228,0.1245,0.1266,0.1292,0.1334,0.1341,0.1351,0.1364,0.1396,0.145,0.1388,0.1388,0.1396,0.1503,0.1419,0.1417,0.1457,0.1458,0.1459,0.1492,0,0.1148,0.1156,0.1162,0.1179,0.1185,0.1198,0.1224,0.1247,0.1267,0.1295,0.1327,0.1359,0.1362,0.1378,0.1411,0.144,0.1469,0.144,0.1461,0.1461,0.138,0.1423,0.1282,0.1293,0.1498,0.1499,0.15,0,0.1152,0.1156,0.1169,0.1184,0.1191,0.1208,0.1237,0.126,0.1306,0.1325,0.136,0.1377,0.1434,0.1425,0.1492,0.1474,0.1492,0.151,0.1512,0.1416,0.1388,0.1283,0.1297,0.1511,0.151,0.1509,0.1508,0,0.1144,0.116,0.1169,0.1174,0.1198,0.1212,0.1232,0.1271,0.1292,0.1348,0.1368,0.1422,0.1453,0.149,0.1524,0.1515,0.1586,0.1575,0.1513,0.1507,0.1381,0.1361,0.1619,0.1619,0.1619,0.1619,0.1619,0,0.114,0.1147,0.1167,0.117,0.1189,0.121,0.1241,0.1266,0.1309,0.134,0.1386,0.1413,0.1473,0.1511,0.1536,0.154,0.1595,0.152,0.1513,0.1394,0.1375,0.1554,0.1547,0.162,0.162,0.1619,0.1619,0,0.1124,0.1137,0.1145,0.1171,0.1182,0.1195,0.1236,0.1256,0.1306,0.1343,0.1363,0.1421,0.1465,0.1505,0.1567,0.1545,0.1567,0.1554,0.1399,0.1371,0.1464,0.1459,0.1483,0.148,0.1478,0.1476,0.1475,0,0.1117,0.1119,0.114,0.1148,0.116,0.1188,0.1206,0.1251,0.1269,0.1341,0.1352,0.1406,0.1415,0.1459,0.1444,0.145,0.1523,0.1323,0.1274,0.1461,0.1453,0.1451,0.1448,0.1136,0.1131,0.1128,0.1125,0,0.11,0.1108,0.1114,0.1128,0.1143,0.1158,0.1186,0.1192,0.1247,0.1269,0.1294,0.1305,0.1328,0.1255,0.1257,0.1248,0.1306,0.1249,0.1505,0.1181,0.1134,0.1125,0.1134,0.1095,0.1098,0.11,0.1102,0.1103,0.1089,0.1086,0.1094,0.1101,0.1114,0.1114,0.1107,0.1125,0.1128,0.113,0.1189,0.116,0.1162,0.1073,0.1037,0.1006,0.1104,0.1054,0.1066,0.108,0.1023,0.0974,0.0894,0.0895,0.0897,0.0898,0.09,0,0.1072,0.1071,0.107,0.1062,0.105,0.108,0.1078,0.1047,0.1012,0.1021,0.1012,0.0903,0.0834,0.0852,0.0739,0.0718,0.0723,0.0694,0.0696,0.0726,0.0753,0.068,0.0459,0.0458,0.0457,0.0456,0,0,0.1063,0.1047,0.1033,0.0994,0.0998,0.0957,0.0944,0.0895,0.0872,0.0803,0.0766,0.081,0.0822,0.0647,0.0603,0.0514,0.0624,0.0485,0.0835,0.0867,0.0893,0.095,0.087,0,0,0,0,0]},{"header":{"parameterUnit":"m.s-1","parameterCategory":2,"la1":30.2991,"la2":30.254,"lo1":-89.0895,"lo2":-89.0444,"dy":0.0017,"dx":0.0017,"nx":28,"ny":28,"refTime":"2025-11-18T09:00:00:Z","depth":"2","parameterNumber":3,"parameterNumberName":"V-component_of_CURRENTS"},"data":[0,0,0,0,0,0,0,0,0,0,0,0,0,0,0,0,0,0,0,0,0,0,0,0,0,0,0,0,0,0,0,0,0,0,0,0,0,0,0,0,0,0,0,0,0,0,0,0,0,0,0,0,0,0,0,0,0,0,0.0096,0.0096,0,0.0102,0.0102,0.0102,0.0097,0.0097,0.0097,0.0097,0.0088,0.0088,0.0088,0,0,0,0,0,0,0,0,0,0,0,0,0,0.0076,0.0077,0.0096,0.0096,0.0096,0.0102,0.0102,0.0102,0.0097,0.0097,0.0097,0.0097,0.0088,0.0088,0.0088,0,0,0,0,0,0,0,0,0,0,0,0,0,0.0083,0.0077,0.0096,0.0095,0.0095,0.0102,0.0102,0.0102,0.0097,0.0097,0.0097,0.0097,0.0088,0.0088,0.0088,0.0091,0,0,0.0087,0.0087,0,0,0,0,0,0,0,0,0.0083,0.0084,0.0095,0.0095,0.0095,0.0099,0.0092,0.0098,0.0097,0.0096,0.0097,0.0097,0.0091,0.0091,0.0091,0.009,0.009,0.0087,0.0087,0.0087,0.0087,0,0,0,0,0,0,0,0.0082,0.0083,0.0098,0.0095,0.0096,0.0093,0.0094,0.0093,0.0094,0.0096,0.0096,0.0098,0.0091,0.0092,0.0091,0.009,0.0087,0.0087,0.0087,0.0087,0.0094,0.0095,0,0,0,0,0,0,0.0084,0.0083,0.0097,0.0098,0.0089,0.0094,0.0094,0.0098,0.0094,0.0094,0.0098,0.0097,0.0092,0.0091,0.0091,0.0101,0.0087,0.0087,0.0087,0.0094,0.0094,0.0095,0,0,0,0,0,0,0.0083,0.0085,0.0097,0.0091,0.0093,0.0094,0.0098,0.0098,0.0095,0.0096,0.0095,0.0095,0.0092,0.0091,0.0094,0.01,0.0087,0.0087,0.0094,0.0094,0.0095,0.0117,0,0,0,0,0,0,0.0083,0.0085,0.0086,0.0091,0.0093,0.0103,0.0098,0.0098,0.0097,0.0097,0.0093,0.0092,0.0092,0.0094,0.0094,0.01,0.0087,0.0093,0.0094,0.0095,0.0116,0.0118,0.012,0,0,0,0,0,0.0082,0.0088,0.0086,0.0088,0.0095,0.0103,0.0104,0.0104,0.0097,0.01,0.0099,0.0092,0.0097,0.0095,0.0094,0.01,0.0093,0.0094,0.0094,0.0115,0.0118,0.012,0,0,0,0,0,0,0.0079,0.0088,0.0087,0.0094,0.0098,0.0103,0.0106,0.0102,0.0103,0.0102,0.0097,0.0097,0.0102,0.0097,0.0094,0.0104,0.0094,0.0094,0.011,0.0112,0.0114,0.0127,0.0087,0,0,0,0,0,0.0079,0.0087,0.0092,0.0098,0.01,0.0101,0.0103,0.0104,0.0106,0.0105,0.0104,0.0102,0.0104,0.0105,0.0106,0.0111,0.0108,0.0114,0.0116,0.0118,0.0128,0.0127,0.013,0.0097,0.0097,0.0097,0,0,0.0079,0.0086,0.0089,0.0098,0.01,0.0112,0.0101,0.0108,0.0117,0.0105,0.0115,0.0109,0.0107,0.0116,0.0117,0.0112,0.0124,0.0119,0.012,0.0129,0.0128,0.0131,0.0134,0.0097,0.0097,0.0097,0,0,0.0088,0.0089,0.01,0.0106,0.0114,0.0117,0.0118,0.0123,0.0124,0.0133,0.0127,0.0128,0.0128,0.0132,0.0133,0.0146,0.0135,0.0141,0.0164,0.0163,0.0166,0.0168,0.0164,0.0166,0.0143,0.0143,0.0143,0,0.0088,0.0104,0.0103,0.0117,0.0127,0.012,0.0136,0.0138,0.0144,0.0151,0.0139,0.0146,0.014,0.0155,0.0159,0.0152,0.0147,0.0154,0.0166,0.0168,0.0171,0.0165,0.0167,0.0144,0.0144,0.0144,0.0144,0,0.0108,0.012,0.0128,0.0146,0.0154,0.0166,0.0172,0.0179,0.0177,0.018,0.0191,0.0182,0.0188,0.0181,0.0175,0.0188,0.0178,0.0168,0.016,0.0175,0.0169,0.017,0.0146,0.0146,0.0145,0.0145,0,0,0.0112,0.0138,0.0141,0.0157,0.0172,0.0184,0.0201,0.0219,0.0235,0.023,0.025,0.0244,0.0235,0.0236,0.0223,0.022,0.0224,0.0202,0.0201,0.02,0.022,0.0211,0.0211,0.0214,0.0215,0.0215,0.0208,0,0.0129,0.0163,0.0171,0.0204,0.0222,0.0229,0.0248,0.0262,0.0267,0.0284,0.0274,0.0285,0.0256,0.026,0.0252,0.0236,0.023,0.0227,0.0205,0.0205,0.0196,0.0213,0.0216,0.021,0.0209,0.021,0.021,0,0.015,0.0172,0.0206,0.0242,0.0251,0.0269,0.0303,0.032,0.0338,0.0343,0.0348,0.0339,0.034,0.0309,0.0288,0.0287,0.0258,0.0238,0.0237,0.0224,0.0198,0.0196,0.0212,0.0212,0.0212,0.0212,0.0212,0,0.0161,0.0198,0.0228,0.024,0.0276,0.0295,0.0315,0.0339,0.0364,0.0382,0.0402,0.0391,0.0396,0.036,0.0317,0.0304,0.0291,0.0266,0.023,0.0228,0.0226,0.0223,0.0251,0.0251,0.0252,0.0252,0.0252,0,0.0182,0.0206,0.0236,0.0255,0.0296,0.0313,0.0358,0.0374,0.0408,0.045,0.0433,0.0461,0.0409,0.0395,0.0341,0.0296,0.0309,0.0243,0.0231,0.0233,0.0231,0.0229,0.0227,0.0251,0.0251,0.0251,0.0251,0,0.0192,0.021,0.0249,0.0289,0.0303,0.0333,0.0388,0.0425,0.0448,0.0504,0.0515,0.052,0.0502,0.0446,0.0394,0.0336,0.0288,0.0265,0.027,0.0258,0.0217,0.0215,0.0225,0.0225,0.0224,0.0224,0.0224,0,0.0201,0.0221,0.0271,0.0298,0.0318,0.0364,0.0402,0.044,0.0486,0.0545,0.058,0.0579,0.0584,0.0501,0.0408,0.032,0.0301,0.0254,0.0227,0.0229,0.0216,0.0215,0.0214,0.0229,0.0229,0.0229,0.0229,0,0.0222,0.0237,0.0271,0.0324,0.0367,0.0419,0.0477,0.0521,0.0578,0.0623,0.0679,0.0684,0.0615,0.0531,0.0409,0.0341,0.0267,0.0248,0.0261,0.0234,0.0232,0.022,0.0219,0.0228,0.0228,0.0228,0.0228,0.0228,0.0237,0.0262,0.0306,0.0357,0.0408,0.0475,0.0521,0.0588,0.066,0.0727,0.0735,0.0731,0.0645,0.0481,0.0384,0.027,0.0272,0.0215,0.0215,0.0216,0.0217,0.0215,0.0207,0.0207,0.0207,0.0207,0.0207,0,0.0259,0.029,0.0338,0.0403,0.0458,0.0482,0.0574,0.0621,0.0705,0.0747,0.0776,0.0679,0.0593,0.0487,0.0326,0.0231,0.0216,0.0189,0.0197,0.0198,0.02,0.02,0.0185,0.0184,0.0184,0.0184,0,0,0.0274,0.032,0.0345,0.0433,0.0478,0.0552,0.0603,0.0673,0.0717,0.0749,0.0737,0.0725,0.0612,0.0489,0.0371,0.028,0.0254,0.0252,0.0279,0.0304,0.0306,0.0224,0.0227,0,0,0,0,0]}],[{"header":{"parameterUnit":"m.s-1","parameterCategory":2,"la1":30.2991,"la2":30.254,"lo1":-89.0895,"lo2":-89.0444,"dy":0.0017,"dx":0.0017,"nx":28,"ny":28,"refTime":"2025-11-18T09:00:00:Z","depth":"4","parameterNumber":2,"parameterNumberName":"U-component_of_CURRENTS"},"data":[0,0,0,0,0,0,0,0,0,0,0,0,0,0,0,0,0,0,0,0,0,0,0,0,0,0,0,0,0,0,0,0,0,0,0,0,0,0,0,0,0,0,0,0,0,0,0,0,0,0,0,0,0,0,0,0,0,0,0.0504,0.0505,0,0.0506,0.0506,0.0506,0.0521,0.0522,0.0522,0.0523,0.0551,0.0552,0.0552,0,0,0,0,0,0,0,0,0,0,0,0,0,0.0508,0.0508,0.0504,0.0505,0.0505,0.0506,0.0506,0.0506,0.0521,0.0522,0.0523,0.0523,0.0551,0.0551,0.0552,0,0,0,0,0,0,0,0,0,0,0,0,0,0.0507,0.0508,0.0504,0.0514,0.0514,0.0506,0.0506,0.0506,0.0521,0.0522,0.0523,0.0523,0.0551,0.0551,0.0552,0.0539,0,0,0.0553,0.0553,0,0,0,0,0,0,0,0,0.0507,0.0506,0.0512,0.0513,0.0514,0.0516,0.0518,0.0519,0.0521,0.0517,0.0523,0.0524,0.0542,0.0543,0.054,0.0541,0.0542,0.0553,0.0553,0.0554,0.0554,0,0,0,0,0,0,0,0.0507,0.0506,0.0504,0.0512,0.0513,0.0516,0.0516,0.0518,0.0525,0.0518,0.0519,0.0521,0.0543,0.0539,0.0541,0.0542,0.0553,0.0554,0.0554,0.0554,0.0602,0.0603,0,0,0,0,0,0,0.0509,0.0506,0.0504,0.0504,0.0514,0.0515,0.0516,0.0513,0.0524,0.0527,0.0521,0.0522,0.0538,0.054,0.0542,0.0588,0.0554,0.0554,0.0554,0.0601,0.0602,0.0603,0,0,0,0,0,0,0.0509,0.0508,0.0504,0.0507,0.0507,0.0515,0.0511,0.0513,0.0528,0.0527,0.053,0.0537,0.0539,0.0541,0.0561,0.0588,0.0554,0.0555,0.0599,0.0601,0.0602,0.0643,0,0,0,0,0,0,0.0509,0.0508,0.0515,0.0507,0.0506,0.0514,0.0511,0.0512,0.0528,0.053,0.0541,0.0543,0.054,0.0561,0.0562,0.0587,0.0555,0.0598,0.06,0.0602,0.0641,0.0646,0.065,0,0,0,0,0,0.0509,0.0512,0.0515,0.0515,0.0512,0.0515,0.0515,0.0522,0.0528,0.0538,0.0547,0.0544,0.0574,0.0561,0.0563,0.0589,0.0597,0.06,0.0602,0.0638,0.0645,0.065,0,0,0,0,0,0,0.0519,0.0514,0.0517,0.0519,0.0525,0.0518,0.0527,0.0532,0.0545,0.0551,0.0551,0.0554,0.0584,0.0579,0.0565,0.0609,0.0587,0.059,0.0615,0.0621,0.0626,0.0618,0.0555,0,0,0,0,0,0.0523,0.0525,0.0523,0.0529,0.0531,0.0533,0.0538,0.0542,0.0548,0.0555,0.0565,0.0576,0.059,0.06,0.0608,0.0626,0.0626,0.0646,0.0651,0.0655,0.0651,0.0683,0.069,0.061,0.061,0.061,0,0,0.0529,0.0528,0.0529,0.0532,0.0534,0.0539,0.0538,0.0549,0.056,0.0556,0.0582,0.0595,0.0599,0.0624,0.0637,0.0626,0.0679,0.0658,0.0662,0.0654,0.0686,0.0694,0.0701,0.0612,0.0612,0.0611,0,0,0.0536,0.054,0.0543,0.0548,0.0556,0.0556,0.0565,0.0571,0.0584,0.0603,0.061,0.0637,0.0651,0.0664,0.067,0.0706,0.0705,0.0716,0.0735,0.0767,0.0774,0.0779,0.0789,0.0795,0.0718,0.0718,0.0718,0,0.0545,0.0544,0.0546,0.0551,0.0558,0.0567,0.0574,0.0584,0.0601,0.0615,0.0619,0.0659,0.0669,0.07,0.0716,0.0718,0.0728,0.0712,0.0773,0.0779,0.0785,0.0793,0.0799,0.072,0.072,0.072,0.072,0,0.0547,0.0555,0.0558,0.0565,0.0576,0.0584,0.0596,0.0617,0.0635,0.0644,0.0686,0.0701,0.0727,0.074,0.0737,0.0785,0.0777,0.0777,0.0757,0.0795,0.0801,0.0808,0.0724,0.0723,0.0722,0.0722,0,0,0.0547,0.0557,0.0561,0.0566,0.0584,0.0589,0.0617,0.0639,0.066,0.0688,0.0721,0.0752,0.077,0.0778,0.0791,0.0815,0.0865,0.0815,0.0815,0.0822,0.0926,0.0838,0.0836,0.0883,0.0884,0.0885,0.0915,0,0.055,0.0556,0.0566,0.0582,0.0585,0.0607,0.063,0.0656,0.0682,0.0718,0.0747,0.0782,0.0782,0.0807,0.0834,0.0861,0.0883,0.0856,0.089,0.089,0.0806,0.0841,0.0889,0.0919,0.0921,0.0922,0.0923,0,0.0547,0.0553,0.0564,0.0585,0.059,0.0609,0.065,0.0671,0.0719,0.0745,0.0787,0.0811,0.086,0.0854,0.0914,0.09,0.0916,0.0927,0.0929,0.0833,0.0813,0.0874,0.0933,0.0932,0.0932,0.0931,0.093,0,0.0533,0.0552,0.0561,0.0567,0.0593,0.0617,0.064,0.0684,0.0709,0.0772,0.08,0.0853,0.0892,0.0925,0.0951,0.0945,0.1002,0.0998,0.0929,0.0922,0.0974,0.0967,0.1036,0.1036,0.1036,0.1036,0.1036,0,0.0521,0.0532,0.0559,0.0563,0.0587,0.0613,0.0649,0.0683,0.0735,0.0763,0.0818,0.0849,0.0915,0.0951,0.0967,0.096,0.102,0.093,0.0927,0.099,0.0985,0.0978,0.0971,0.1037,0.1037,0.1036,0.1036,0,0.0501,0.0516,0.0529,0.0564,0.0579,0.0599,0.0652,0.0673,0.073,0.0774,0.0799,0.0867,0.0911,0.0949,0.1003,0.0972,0.098,0.0962,0.1016,0.1016,0.0874,0.0869,0.0888,0.0885,0.0882,0.088,0.0879,0,0.0486,0.0489,0.0525,0.0537,0.0558,0.0593,0.0613,0.067,0.0691,0.077,0.0784,0.0851,0.0887,0.0891,0.0935,0.0949,0.0937,0.0927,0.0903,0.0865,0.0861,0.0859,0.0857,0.0875,0.0874,0.0874,0.0873,0,0.0457,0.0477,0.0487,0.0511,0.0537,0.0556,0.0592,0.0605,0.0665,0.0725,0.0754,0.0776,0.0815,0.0845,0.0859,0.0868,0.0926,0.0902,0.0907,0.0884,0.085,0.0848,0.0849,0.0865,0.0866,0.0867,0.0867,0,0.044,0.044,0.0455,0.0476,0.0502,0.0507,0.0534,0.0557,0.0585,0.0671,0.0679,0.0746,0.0809,0.0803,0.0818,0.0815,0.0801,0.0767,0.0778,0.0788,0.0739,0.068,0.064,0,0,0,0,0,0.0419,0.0411,0.0418,0.0429,0.0452,0.0471,0.0508,0.0535,0.0596,0.0596,0.0635,0.0667,0.0688,0.0722,0.07,0.0765,0.08,0.0733,0.0766,0.082,0.0829,0.0779,0,0,0,0,0,0,0.0402,0.0404,0.0398,0.0383,0.0389,0.0405,0.043,0.0473,0.0474,0.0545,0.0565,0.0614,0.0652,0.0701,0.0688,0.0695,0.0695,0.0773,0.077,0.0814,0.0823,0.083,0.0782,0,0,0,0,0]},{"header":{"parameterUnit":"m.s-1","parameterCategory":2,"la1":30.2991,"la2":30.254,"lo1":-89.0895,"lo2":-89.0444,"dy":0.0017,"dx":0.0017,"nx":28,"ny":28,"refTime":"2025-11-18T09:00:00:Z","depth":"4","parameterNumber":3,"parameterNumberName":"V-component_of_CURRENTS"},"data":[0,0,0,0,0,0,0,0,0,0,0,0,0,0,0,0,0,0,0,0,0,0,0,0,0,0,0,0,0,0,0,0,0,0,0,0,0,0,0,0,0,0,0,0,0,0,0,0,0,0,0,0,0,0,0,0,0,0,0.015,0.0151,0,0.0163,0.0163,0.0163,0.0164,0.0163,0.0163,0.0163,0.0167,0.0167,0.0167,0,0,0,0,0,0,0,0,0,0,0,0,0,0.0126,0.0127,0.015,0.0151,0.0151,0.0163,0.0163,0.0163,0.0164,0.0163,0.0163,0.0163,0.0167,0.0167,0.0167,0,0,0,0,0,0,0,0,0,0,0,0,0,0.0138,0.0127,0.015,0.0152,0.0152,0.0163,0.0163,0.0163,0.0164,0.0163,0.0163,0.0163,0.0167,0.0167,0.0167,0.0176,0,0,0.0169,0.0169,0,0,0,0,0,0,0,0,0.0137,0.0139,0.0152,0.0152,0.0152,0.0161,0.0156,0.0167,0.0164,0.016,0.0163,0.0163,0.0164,0.0165,0.0168,0.0176,0.0176,0.0169,0.0169,0.0169,0.0169,0,0,0,0,0,0,0,0.0137,0.0138,0.0156,0.0152,0.0152,0.0152,0.0153,0.0158,0.0163,0.016,0.016,0.0161,0.0164,0.0168,0.0168,0.0176,0.0169,0.0169,0.0169,0.017,0.0193,0.0194,0,0,0,0,0,0,0.0135,0.0138,0.0155,0.0156,0.0143,0.0153,0.0154,0.0159,0.0164,0.0164,0.0161,0.0161,0.0167,0.0168,0.0169,0.0183,0.0169,0.017,0.017,0.0193,0.0194,0.0194,0,0,0,0,0,0,0.0134,0.0136,0.0155,0.0147,0.0149,0.0153,0.0159,0.0159,0.0163,0.0164,0.0165,0.0164,0.0167,0.0168,0.0177,0.0183,0.017,0.017,0.0193,0.0193,0.0194,0.0209,0,0,0,0,0,0,0.0134,0.0136,0.014,0.0147,0.0149,0.0164,0.0159,0.016,0.0163,0.0163,0.0167,0.0167,0.0167,0.0176,0.0177,0.0183,0.0171,0.0192,0.0193,0.0194,0.0208,0.021,0.0212,0,0,0,0,0,0.0133,0.014,0.014,0.0142,0.0154,0.0164,0.0166,0.0168,0.0164,0.0169,0.0172,0.0167,0.0181,0.0177,0.0178,0.0184,0.0192,0.0193,0.0193,0.0207,0.021,0.0212,0,0,0,0,0,0,0.013,0.0141,0.0141,0.015,0.0157,0.0164,0.0169,0.0169,0.0175,0.0175,0.0173,0.0174,0.0184,0.0183,0.0178,0.0193,0.0185,0.0186,0.0195,0.0198,0.0199,0.0198,0.0171,0,0,0,0,0,0.0132,0.0141,0.0148,0.0156,0.0159,0.0164,0.0168,0.017,0.0176,0.0178,0.018,0.0183,0.0189,0.0192,0.0196,0.0206,0.0194,0.021,0.0212,0.0214,0.0214,0.0199,0.0199,0.0197,0.0197,0.0197,0,0,0.0132,0.0139,0.0144,0.0156,0.0161,0.0172,0.0166,0.0175,0.0183,0.0178,0.019,0.019,0.0193,0.0204,0.0208,0.0204,0.0208,0.0215,0.0216,0.0215,0.02,0.02,0.02,0.0197,0.0197,0.0197,0,0,0.014,0.0145,0.0155,0.0163,0.0173,0.0178,0.0181,0.0189,0.0192,0.0204,0.0202,0.0205,0.0216,0.0217,0.0219,0.0233,0.0218,0.0236,0.0245,0.0232,0.0231,0.0231,0.0215,0.0213,0.0237,0.0238,0.0238,0,0.014,0.0155,0.0159,0.0172,0.018,0.0181,0.0194,0.02,0.021,0.0214,0.021,0.0221,0.0221,0.023,0.0236,0.0237,0.0226,0.0237,0.0233,0.0233,0.0232,0.0216,0.0213,0.0238,0.0238,0.0238,0.0238,0,0.0155,0.0168,0.0175,0.0192,0.0201,0.0213,0.0221,0.0229,0.0232,0.0235,0.0243,0.0242,0.0247,0.0248,0.0248,0.0248,0.024,0.0236,0.0226,0.0233,0.0215,0.0213,0.024,0.0239,0.0239,0.0239,0,0,0.0154,0.0181,0.0184,0.0197,0.0214,0.0225,0.0239,0.0252,0.0262,0.0264,0.0273,0.0276,0.027,0.0271,0.0267,0.0256,0.0243,0.0247,0.0246,0.0228,0.021,0.02,0.0196,0.0238,0.0237,0.0237,0.0198,0,0.0166,0.0193,0.0203,0.023,0.0245,0.0253,0.0268,0.0279,0.0285,0.0294,0.0286,0.0294,0.0281,0.0285,0.027,0.0255,0.0237,0.0253,0.0208,0.0206,0.0194,0.0193,0.0236,0.0196,0.0196,0.0195,0.0195,0,0.0177,0.0196,0.0224,0.0254,0.0261,0.0277,0.0301,0.0315,0.0324,0.0327,0.0326,0.0319,0.0311,0.0296,0.0258,0.027,0.024,0.022,0.0218,0.0201,0.0192,0.0188,0.019,0.019,0.019,0.0191,0.0191,0,0.0178,0.0211,0.0235,0.0246,0.0278,0.0293,0.031,0.0325,0.0343,0.0349,0.0359,0.034,0.0338,0.0298,0.0257,0.0258,0.0209,0.0204,0.0163,0.0161,0.0174,0.0175,0.0167,0.0167,0.0167,0.0167,0.0167,0,0.0188,0.0208,0.024,0.0255,0.0287,0.0304,0.0337,0.0349,0.0369,0.0391,0.0378,0.0383,0.0339,0.0308,0.0262,0.0205,0.0209,0.0161,0.015,0.0182,0.0184,0.0172,0.0173,0.0165,0.0166,0.0166,0.0166,0,0.0187,0.0207,0.0239,0.0276,0.029,0.0314,0.0361,0.0384,0.0399,0.0426,0.0431,0.0417,0.0377,0.0323,0.026,0.0216,0.016,0.0135,0.0172,0.0164,0.0119,0.0121,0.0086,0.0085,0.0085,0.0084,0.0084,0,0.019,0.0206,0.0253,0.0277,0.0297,0.0337,0.0367,0.0397,0.0422,0.0445,0.0457,0.0431,0.0411,0.0312,0.0253,0.0159,0.0143,0.0109,0.0113,0.0118,0.011,0.0114,0.0117,0.0083,0.0083,0.0083,0.0083,0,0.0196,0.0213,0.0241,0.0287,0.0325,0.0367,0.041,0.043,0.0465,0.0478,0.0475,0.0431,0.0384,0.0309,0.0237,0.0169,0.0131,0.0103,0.0104,0.0107,0.0113,0.0108,0.0112,0.0081,0.0081,0.0081,0.0081,0,0.02,0.0218,0.0256,0.0297,0.0344,0.0385,0.041,0.0441,0.0466,0.0488,0.0483,0.0437,0.0413,0.0314,0.0248,0.0181,0.0162,0.0134,0.0133,0.0134,0.0159,0.0176,0.0151,0,0,0,0,0,0.0205,0.0227,0.0264,0.0311,0.0357,0.0384,0.0435,0.0457,0.0487,0.0484,0.0485,0.044,0.0349,0.0312,0.0243,0.0232,0.0148,0.0148,0.0114,0.007,0.0072,0.0093,0,0,0,0,0,0,0.0209,0.0243,0.0261,0.0315,0.0347,0.0399,0.0431,0.0453,0.0452,0.0469,0.0421,0.041,0.0321,0.0384,0.0236,0.0218,0.0184,0.011,0.0108,0.0068,0.007,0.0072,0.0094,0,0,0,0,0]}]]